Overview Statistics Trail Chart Weather Telemetry Raw packets
 

This is the latest recevied weather packets stored in our database for station/object NI4CE-11. If no packets are shown the sender has not sent any weather packets the latest 10 day(s).

<< 138 139 140 141 142 143 144 >>
Time Temp. Humidity Pressure Rain* Wind** Luminosity Snow
1787819062 26.11° C 100% 1015.9 hPa 0 mm - - -
1787818901 25.56° C 100% 1015.8 hPa 0 mm - - -
1787818762 25.56° C 100% 1015.8 hPa 0 mm - - -
1787818462 25.56° C 100% 1015.8 hPa 0 mm - - -
1787818162 25° C 100% 1015.7 hPa 0 mm - - -
1787817959 26.11° C 100% 1015.7 hPa 0 mm - - -
1787817862 26.11° C 100% 1015.7 hPa 0 mm - - -
1787817562 23.89° C 100% 1015.7 hPa 0 mm - - -
1787817262 25.56° C 100% 1015.8 hPa 0 mm - - -
1787817096 25.56° C 100% 1015.8 hPa 0 mm - - -
1787816962 25.56° C 100% 1015.8 hPa 0 mm - - -
1787816797 24.44° C 100% 1015.9 hPa 0 mm - - -
1787816662 24.44° C 100% 1015.9 hPa 0 mm - - -
1787816362 26.11° C 100% 1015.8 hPa 0 mm - - -
1787816194 25.56° C 100% 1015.8 hPa 0 mm - - -
1787816063 25.56° C 100% 1015.8 hPa 0 mm - - -
1787816062 25.56° C 100% 1015.8 hPa 0 mm - - -
1787815814 26.11° C 100% 1015.7 hPa 0 mm - - -
1787815763 26.11° C 100% 1015.7 hPa 0 mm - - -
1787815762 26.11° C 100% 1015.7 hPa 0 mm - - -
1787815462 26.11° C 100% 1015.6 hPa 0 mm - - -
1787815275 25° C 100% 1015.8 hPa 0 mm - - -
1787815162 25° C 100% 1015.8 hPa 0 mm - - -
1787814954 25° C 100% 1015.8 hPa 0 mm - - -
1787814863 25° C 100% 1015.8 hPa 0 mm - - -

* Rain latest hour (hover to see other rain measurements)
** Current wind speed in m/s (hover to see current wind gust speed)